EW7082 Weather Reports


Display with metric or nautical units.
time (UTC)temp
F
wind
direction
speed
MPH
gust
MPH
rain 1hr
in
rain 24hr
in
rain mn
in
humidity
%
barometer
mb
20260508035705 51 242 0.0 2.0 0.00 0.00 0.00 87 1017.4
20260508034704 51 282 1.0 3.0 0.00 0.00 0.00 86 1017.5
20260508034205 51 267 2.0 3.0 0.00 0.00 0.00 86 1017.5
20260508033705 52 276 3.0 7.0 0.00 0.00 0.00 86 1017.5
20260508032205 52 270 3.0 7.0 0.00 0.00 0.00 85 1017.5
20260508031204 52 267 4.0 8.0 0.00 0.00 0.00 84 1017.6
20260508030704 53 273 5.0 8.0 0.00 0.00 0.00 84 1017.6
20260508025704 53 281 5.0 8.0 0.00 0.00 0.00 84 1017.6
20260508024704 53 280 4.0 7.0 0.00 0.00 0.00 84 1017.6
20260508024204 53 278 3.0 8.0 0.00 0.00 0.00 84 1017.7
20260508023204 53 266 5.0 9.0 0.00 0.00 0.00 84 1017.8
20260508022704 53 257 7.0 12.0 0.00 0.00 0.00 84 1017.8
20260508022205 53 277 4.0 9.0 0.00 0.00 0.00 84 1017.8
20260508021704 53 260 9.0 12.0 0.00 0.00 0.00 84 1017.9
20260508021204 53 263 7.0 12.0 0.00 0.00 0.00 84 1018.0
20260508020204 53 260 7.0 12.0 0.00 0.00 0.00 83 1018.1
20260508015704 54 256 7.0 12.0 0.00 0.00 0.00 82 1018.1
20260508014205 55 276 4.0 10.0 0.00 0.00 0.00 81 1018.1
20260508013705 55 292 6.0 10.0 0.00 0.00 0.00 81 1018.2
20260508013203 55 293 7.0 12.0 0.00 0.00 0.00 81 1018.3
20260508012704 55 266 6.0 12.0 0.00 0.00 0.00 81 1018.3
20260508012204 56 273 6.0 9.0 0.00 0.00 0.00 82 1018.3
20260508011704 55 266 6.0 12.0 0.00 0.00 0.00 81 1018.3
20260508011205 56 254 9.0 12.0 0.00 0.00 0.00 82 1018.4
20260508010704 56 278 5.0 10.0 0.00 0.00 0.00 82 1018.3
20260508010203 56 302 7.0 10.0 0.00 0.00 0.00 81 1018.3
20260508004204 57 315 7.0 12.0 0.00 0.00 0.00 78 1018.3
20260508003203 59 282 8.0 12.0 0.00 0.00 0.00 76 1018.4
20260508002704 60 295 3.0 8.0 0.00 0.00 0.00 75 1018.3
20260508001705 60 298 4.0 7.0 0.00 0.00 0.00 75 1018.3
20260508001203 60 315 4.0 8.0 0.00 0.00 0.00 76 1018.3
20260508000706 61 311 4.0 8.0 0.00 0.00 0.00 76 1018.3
20260508000205 61 288 2.0 5.0 0.00 0.00 0.00 74 1018.4
20260507235704 61 357 3.0 7.0 0.00 0.00 0.00 75 1018.5
20260507235204 61 63 2.0 3.0 0.00 0.00 0.00 75 1018.5
20260507234704 60 341 4.0 7.0 0.00 0.00 0.00 75 1018.5
20260507234203 61 349 3.0 3.0 0.00 0.00 0.00 76 1018.3
20260507233704 60 36 3.0 6.0 0.00 0.00 0.00 75 1018.4
20260507233203 60 67 3.0 7.0 0.00 0.00 0.00 75 1018.4
20260507232704 60 42 3.0 6.0 0.00 0.00 0.00 75 1018.5
20260507232205 60 42 3.0 6.0 0.00 0.00 0.00 75 1018.5
20260507231204 61 32 4.0 9.0 0.00 0.00 0.00 73 1018.6
20260507230705 61 32 3.0 6.0 0.00 0.00 0.00 75 1018.6
20260507230205 61 55 2.0 9.0 0.00 0.00 0.00 76 1018.7
20260507224205 61 37 5.0 8.0 0.00 0.00 0.00 74 1018.8
20260507223204 61 51 4.0 9.0 0.00 0.00 0.00 74 1018.9
20260507222204 61 69 4.0 9.0 0.00 0.00 0.00 73 1019.0
20260507221704 61 53 4.0 8.0 0.00 0.00 0.00 75 1019.0
20260507221203 61 104 5.0 8.0 0.00 0.00 0.00 73 1019.0
20260507220704 61 50 5.0 9.0 0.00 0.00 0.00 74 1019.2
20260507215703 61 101 4.0 8.0 0.00 0.00 0.00 72 1019.2
20260507214704 61 95 4.0 8.0 0.00 0.00 0.00 74 1019.3
20260507213705 61 25 3.0 8.0 0.00 0.00 0.00 76 1019.5
20260507213204 60 42 4.0 8.0 0.00 0.00 0.00 76 1019.5
20260507212704 61 50 3.0 8.0 0.00 0.00 0.00 76 1019.5
20260507212206 60 24 5.0 8.0 0.00 0.00 0.00 76 1019.6
20260507211704 60 27 4.0 7.0 0.00 0.00 0.00 75 1019.6
20260507211204 61 358 5.0 9.0 0.00 0.00 0.00 79 1019.7
20260507210205 60 42 5.0 9.0 0.00 0.00 0.00 77 1019.8
20260507205205 60 23 6.0 9.0 0.00 0.00 0.00 79 1019.9
20260507204704 59 56 5.0 10.0 0.00 0.00 0.00 78 1020.0
20260507204204 59 345 5.0 10.0 0.00 0.00 0.00 78 1020.1
20260507203704 59 22 3.0 12.0 0.00 0.00 0.00 78 1020.1
20260507203204 59 61 6.0 12.0 0.00 0.00 0.00 78 1020.1
20260507202704 59 62 5.0 9.0 0.00 0.00 0.00 77 1020.3
20260507202205 59 43 4.0 9.0 0.00 0.00 0.00 78 1020.3
20260507201704 59 39 5.0 10.0 0.00 0.00 0.00 76 1020.3
20260507201204 59 73 3.0 9.0 0.00 0.00 0.00 76 1020.4
20260507200705 59 29 5.0 10.0 0.00 0.00 0.00 77 1020.4
20260507200204 59 171 1.0 5.0 0.00 0.00 0.00 75 1020.4
20260507195205 59 348 6.0 9.0 0.00 0.00 0.00 75 1020.5
20260507194705 59 333 3.0 6.0 0.00 0.00 0.00 75 1020.5
20260507194203 59 357 2.0 3.0 0.00 0.00 0.00 74 1020.5
20260507193704 59 109 2.0 5.0 0.00 0.00 0.00 76 1020.6
20260507193204 58 101 2.0 6.0 0.00 0.00 0.00 76 1020.6
20260507192705 58 318 1.0 5.0 0.00 0.00 0.00 77 1020.7
20260507192205 57 308 5.0 9.0 0.00 0.00 0.00 78 1020.7
20260507191703 57 310 4.0 9.0 0.00 0.00 0.00 76 1020.7
20260507191204 57 320 6.0 12.0 0.00 0.00 0.00 76 1020.8
20260507190704 58 354 5.0 8.0 0.00 0.00 0.00 78 1020.8
20260507190204 57 0 2.0 9.0 0.00 0.00 0.00 78 1020.8
20260507185204 57 248 7.0 10.0 0.00 0.00 0.00 78 1020.8
20260507184704 57 333 4.0 10.0 0.00 0.00 0.00 77 1020.8
20260507184204 56 320 5.0 9.0 0.00 0.00 0.00 76 1020.8
20260507183704 57 310 7.0 10.0 0.00 0.00 0.00 78 1020.8
20260507183205 57 272 6.0 10.0 0.00 0.00 0.00 78 1020.8
20260507182205 57 307 3.0 9.0 0.00 0.00 0.00 77 1020.9
20260507181703 57 314 4.0 8.0 0.00 0.00 0.00 78 1020.9
20260507181205 56 19 3.0 8.0 0.00 0.00 0.00 78 1020.9
20260507180204 56 341 4.0 9.0 0.00 0.00 0.00 77 1020.8
20260507175705 56 324 6.0 12.0 0.00 0.00 0.00 77 1020.8
20260507175204 56 300 5.0 8.0 0.00 0.00 0.00 79 1020.8
20260507174703 56 316 6.0 10.0 0.00 0.00 0.00 77 1020.8
20260507174203 56 280 6.0 10.0 0.00 0.00 0.00 78 1020.8
20260507173705 56 284 4.0 7.0 0.00 0.00 0.00 78 1020.8
20260507173204 56 285 7.0 9.0 0.00 0.00 0.00 78 1020.9
20260507172704 56 303 5.0 8.0 0.00 0.00 0.00 77 1020.9
20260507172204 56 246 6.0 10.0 0.00 0.00 0.00 76 1020.9
20260507171704 56 306 4.0 8.0 0.00 0.00 0.00 76 1020.9
20260507170705 56 277 3.0 7.0 0.00 0.00 0.00 78 1020.9
20260507170205 55 287 5.0 9.0 0.00 0.00 0.00 77 1021.0
20260507165704 55 289 5.0 9.0 0.00 0.00 0.00 78 1021.0
20260507164704 55 280 5.0 10.0 0.00 0.00 0.00 77 1021.0
20260507164204 55 264 6.0 12.0 0.00 0.00 0.00 77 1021.0
20260507163204 54 292 6.0 10.0 0.00 0.00 0.00 77 1021.1
20260507162704 54 277 7.0 12.0 0.00 0.00 0.00 77 1021.1
20260507162204 54 289 7.0 12.0 0.00 0.00 0.00 77 1021.1
20260507161704 54 303 5.0 10.0 0.00 0.00 0.00 78 1021.2
20260507161204 54 253 7.0 12.0 0.00 0.00 0.00 79 1021.2
20260507160704 53 257 7.0 9.0 0.00 0.00 0.00 78 1021.2
20260507160205 53 290 5.0 9.0 0.00 0.00 0.00 79 1021.2
20260507155705 53 282 5.0 8.0 0.00 0.00 0.00 80 1021.3
20260507155204 53 262 4.0 8.0 0.00 0.00 0.00 79 1021.3
20260507154703 53 263 4.0 8.0 0.00 0.00 0.00 81 1021.3
20260507154203 53 311 4.0 7.0 0.00 0.00 0.00 81 1021.4
20260507153705 53 249 2.0 3.0 0.00 0.00 0.00 82 1021.4
20260507153204 53 219 1.0 3.0 0.00 0.00 0.00 83 1021.4
20260507152205 52 259 2.0 3.0 0.00 0.00 0.00 84 1021.5
20260507151705 52 226 3.0 6.0 0.00 0.00 0.00 84 1021.5
20260507150705 51 283 2.0 3.0 0.00 0.00 0.00 85 1021.4
20260507150203 51 274 2.0 6.0 0.00 0.00 0.00 85 1021.4
20260507145704 51 264 3.0 6.0 0.00 0.00 0.00 85 1021.5
20260507145204 51 274 1.0 3.0 0.00 0.00 0.00 84 1021.5
20260507144205 51 262 2.0 3.0 0.00 0.00 0.00 83 1021.5
20260507143704 50 254 4.0 6.0 0.00 0.00 0.00 83 1021.5
20260507143203 50 277 2.0 3.0 0.00 0.00 0.00 85 1021.4
20260507141705 50 225 1.0 2.0 0.00 0.00 0.00 86 1021.4
20260507141204 50 225 1.0 2.0 0.00 0.00 0.00 86 1021.3
20260507140706 50 225 2.0 3.0 0.00 0.00 0.00 87 1021.3
20260507140204 50 225 1.0 2.0 0.00 0.00 0.00 87 1021.3
20260507135705 50 225 1.0 2.0 0.00 0.00 0.00 87 1021.3
20260507135204 50 225 0.0 1.0 0.00 0.00 0.00 88 1021.3
20260507134704 50 225 1.0 2.0 0.00 0.00 0.00 88 1021.2
20260507134204 50 194 0.0 2.0 0.00 0.00 0.00 88 1021.3
20260507133704 50 191 0.0 1.0 0.00 0.00 0.00 88 1021.3
20260507133204 49 200 1.0 3.0 0.00 0.00 0.00 88 1021.3
20260507131704 49 270 0.0 0.0 0.00 0.00 0.00 89 1021.2
20260507131204 49 270 1.0 2.0 0.00 0.00 0.00 89 1021.2
20260507130704 49 267 2.0 3.0 0.00 0.00 0.00 89 1021.1
20260507130205 49 257 1.0 2.0 0.00 0.00 0.00 90 1021.2
20260507125704 49 257 1.0 2.0 0.00 0.00 0.00 90 1021.1
20260507125204 49 248 1.0 3.0 0.00 0.00 0.00 90 1021.1
20260507124204 49 263 2.0 3.0 0.00 0.00 0.00 90 1021.2
20260507123704 49 251 1.0 2.0 0.00 0.00 0.00 90 1021.2
20260507122205 49 229 2.0 5.0 0.00 0.00 0.00 89 1021.3
20260507121705 49 222 2.0 5.0 0.00 0.00 0.00 89 1021.3
20260507121205 49 235 3.0 3.0 0.00 0.00 0.00 88 1021.3
20260507120705 49 247 2.0 5.0 0.00 0.00 0.00 88 1021.3
20260507115705 49 267 3.0 6.0 0.00 0.00 0.00 89 1021.4
20260507115205 49 272 2.0 7.0 0.00 0.00 0.00 89 1021.4
20260507114704 49 262 3.0 6.0 0.00 0.00 0.00 89 1021.4
20260507114204 49 254 3.0 7.0 0.00 0.00 0.00 89 1021.4
20260507113705 49 252 3.0 3.0 0.00 0.00 0.00 89 1021.4
20260507113204 49 261 3.0 6.0 0.00 0.00 0.00 89 1021.4
20260507112204 49 287 3.0 3.0 0.00 0.00 0.00 89 1021.4
20260507111204 48 265 1.0 3.0 0.00 0.00 0.00 89 1021.4
20260507110705 48 239 2.0 3.0 0.00 0.00 0.00 89 1021.4
20260507110204 49 262 2.0 3.0 0.00 0.00 0.00 89 1021.4
20260507105704 48 263 3.0 7.0 0.00 0.00 0.00 89 1021.5
20260507105205 48 254 2.0 3.0 0.00 0.00 0.00 89 1021.5
20260507104204 49 247 3.0 6.0 0.00 0.00 0.00 89 1021.5
20260507103705 49 244 2.0 3.0 0.00 0.00 0.00 88 1021.6
20260507103204 49 267 3.0 3.0 0.00 0.00 0.00 89 1021.6
20260507102705 49 269 2.0 6.0 0.00 0.00 0.00 89 1021.5
20260507102205 49 245 3.0 7.0 0.00 0.00 0.00 89 1021.5
20260507101704 49 244 3.0 6.0 0.00 0.00 0.00 89 1021.5
20260507101204 49 258 4.0 7.0 0.00 0.00 0.00 89 1021.4
20260507100705 49 242 4.0 7.0 0.00 0.00 0.00 89 1021.4
20260507100204 50 232 3.0 6.0 0.00 0.00 0.00 88 1021.5
20260507095704 50 242 3.0 5.0 0.00 0.00 0.00 88 1021.6
20260507095205 50 258 3.0 5.0 0.00 0.00 0.00 88 1021.5
20260507094703 50 238 4.0 7.0 0.00 0.00 0.00 88 1021.5
20260507094204 50 258 5.0 8.0 0.00 0.00 0.00 88 1021.6
20260507093704 50 255 5.0 8.0 0.00 0.00 0.00 88 1021.6
20260507093205 51 237 5.0 8.0 0.00 0.00 0.00 88 1021.6
20260507092704 51 261 4.0 8.0 0.00 0.00 0.00 88 1021.7
20260507092205 51 257 3.0 7.0 0.00 0.00 0.00 88 1021.7
20260507091704 51 249 3.0 6.0 0.00 0.00 0.00 87 1021.9
20260507091204 51 234 5.0 8.0 0.00 0.00 0.00 87 1021.9
20260507090705 51 237 4.0 7.0 0.00 0.00 0.00 87 1021.9
20260507090204 51 251 4.0 8.0 0.00 0.00 0.00 87 1021.9
20260507085704 51 259 3.0 7.0 0.00 0.00 0.00 87 1021.9
20260507085206 51 248 5.0 9.0 0.00 0.00 0.00 87 1021.8
20260507084203 52 251 6.0 9.0 0.00 0.00 0.00 87 1021.6
20260507083706 52 256 4.0 8.0 0.00 0.00 0.00 87 1021.7
20260507083204 52 261 4.0 7.0 0.00 0.00 0.00 87 1021.6
20260507082704 52 252 6.0 12.0 0.00 0.00 0.00 86 1021.7
20260507082205 52 269 4.0 12.0 0.00 0.00 0.00 86 1021.7
20260507080705 52 263 3.0 7.0 0.00 0.00 0.00 87 1021.7
20260507080204 52 287 3.0 6.0 0.00 0.00 0.00 87 1021.6
20260507074704 52 277 1.0 3.0 0.00 0.00 0.00 88 1021.3
20260507074205 52 279 3.0 5.0 0.00 0.00 0.00 88 1021.3
20260507073705 52 253 1.0 3.0 0.00 0.00 0.00 89 1021.2
20260507072704 52 259 5.0 8.0 0.00 0.00 0.00 89 1021.2
20260507071703 52 263 5.0 7.0 0.00 0.00 0.00 88 1021.2
20260507071203 53 279 7.0 9.0 0.00 0.00 0.00 87 1021.2
20260507070705 53 269 5.0 8.0 0.00 0.00 0.00 86 1021.2
20260507070205 53 274 5.0 8.0 0.00 0.00 0.00 86 1021.2
20260507065704 53 267 5.0 7.0 0.00 0.00 0.00 87 1021.2
20260507065204 53 250 4.0 8.0 0.00 0.00 0.00 87 1021.2
20260507064704 53 247 3.0 5.0 0.00 0.00 0.00 88 1021.1
20260507063204 53 229 3.0 5.0 0.00 0.00 0.00 88 1021.2
20260507062704 53 249 3.0 7.0 0.00 0.00 0.00 89 1021.1
20260507062204 53 232 3.0 6.0 0.00 0.00 0.00 89 1021.1
20260507061204 53 233 5.0 9.0 0.00 0.00 0.00 89 1021.1
20260507060704 53 241 3.0 5.0 0.00 0.00 0.00 90 1021.2
20260507060205 53 228 3.0 5.0 0.00 0.00 0.00 90 1021.2
20260507055703 53 239 3.0 6.0 0.00 0.00 0.00 90 1021.2
20260507055204 53 246 5.0 9.0 0.00 0.00 0.00 90 1021.2
20260507054704 53 247 2.0 5.0 0.00 0.00 0.00 90 1021.3
20260507054204 53 256 1.0 5.0 0.00 0.00 0.00 90 1021.3
20260507053704 52 233 3.0 6.0 0.00 0.00 0.00 90 1021.2
20260507053205 52 257 4.0 7.0 0.00 0.00 0.00 90 1021.2
20260507052704 52 254 4.0 7.0 0.00 0.00 0.00 90 1021.3
20260507052204 52 260 2.0 7.0 0.00 0.00 0.00 90 1021.3
20260507051704 52 260 5.0 8.0 0.00 0.00 0.00 90 1021.4
20260507051204 52 255 6.0 8.0 0.00 0.00 0.00 90 1021.4
20260507050705 52 259 6.0 10.0 0.00 0.00 0.00 90 1021.4
20260507050204 52 253 3.0 8.0 0.00 0.00 0.00 90 1021.5
20260507045704 52 269 3.0 10.0 0.00 0.00 0.00 89 1021.5
20260507045206 53 263 3.0 12.0 0.00 0.00 0.00 89 1021.4
20260507044706 53 264 7.0 12.0 0.00 0.00 0.00 89 1021.5
20260507043705 53 259 6.0 9.0 0.00 0.00 0.00 89 1021.4
20260507043204 53 273 5.0 12.0 0.00 0.00 0.00 88 1021.4
20260507042704 53 248 7.0 12.0 0.00 0.00 0.00 89 1021.4
20260507042206 54 250 7.0 10.0 0.00 0.00 0.00 88 1021.2
20260507041704 54 265 6.0 12.0 0.00 0.00 0.00 88 1021.3
20260507041205 54 249 5.0 9.0 0.00 0.00 0.00 88 1021.1
20260507040704 54 248 6.0 12.0 0.00 0.00 0.00 88 1021.1
20260507040203 54 253 5.0 14.0 0.00 0.00 0.00 88 1021.2